| time (UTC) | temp F | wind direction | speed MPH | gust MPH | rain 1hr in | rain 24hr in | rain mn in | humidity % | barometer mb |
| 20260503213514 | 55 | 213 | 10.0 | 18.0 | 0.00 | 0.00 | 0.00 | 45 | 1010.6 |
| 20260503213013 | 55 | 212 | 12.0 | 21.0 | 0.00 | 0.00 | 0.00 | 45 | 1010.7 |
| 20260503212512 | 56 | 205 | 12.0 | 21.0 | 0.00 | 0.00 | 0.00 | 44 | 1010.5 |
| 20260503212011 | 56 | 204 | 7.0 | 18.0 | 0.00 | 0.00 | 0.00 | 45 | 1010.5 |
| 20260503211512 | 56 | 260 | 12.0 | 18.0 | 0.00 | 0.00 | 0.00 | 43 | 1010.5 |
| 20260503211011 | 55 | 229 | 9.0 | 16.0 | 0.00 | 0.00 | 0.00 | 43 | 1010.5 |
| 20260503210510 | 56 | 223 | 9.0 | 16.0 | 0.00 | 0.00 | 0.00 | 42 | 1010.4 |
| 20260503210009 | 56 | 288 | 8.0 | 13.0 | 0.00 | 0.00 | 0.00 | 44 | 1010.5 |
| 20260503205011 | 55 | 257 | 8.0 | 21.0 | 0.00 | 0.00 | 0.00 | 43 | 1010.6 |
| 20260503204510 | 55 | 271 | 12.0 | 21.0 | 0.00 | 0.00 | 0.00 | 43 | 1010.7 |
| 20260503204014 | 55 | 229 | 9.0 | 20.0 | 0.00 | 0.00 | 0.00 | 41 | 1010.8 |
| 20260503203509 | 55 | 250 | 7.0 | 19.0 | 0.00 | 0.00 | 0.00 | 44 | 1010.7 |
| 20260503203020 | 56 | 254 | 10.0 | 18.0 | 0.00 | 0.00 | 0.00 | 42 | 1010.9 |
| 20260503202508 | 55 | 245 | 10.0 | 18.0 | 0.00 | 0.00 | 0.00 | 42 | 1010.9 |
| 20260503202008 | 55 | 251 | 6.0 | 18.0 | 0.00 | 0.00 | 0.00 | 43 | 1011.0 |
| 20260503201508 | 55 | 249 | 10.0 | 23.0 | 0.00 | 0.00 | 0.00 | 42 | 1011.0 |
| 20260503201011 | 56 | 246 | 9.0 | 16.0 | 0.00 | 0.00 | 0.00 | 42 | 1011.1 |
| 20260503200506 | 56 | 203 | 6.0 | 18.0 | 0.00 | 0.00 | 0.00 | 42 | 1011.1 |
| 20260503200005 | 56 | 250 | 10.0 | 19.0 | 0.00 | 0.00 | 0.00 | 42 | 1011.2 |
| 20260503195003 | 55 | 247 | 8.0 | 16.0 | 0.00 | 0.00 | 0.00 | 42 | 1011.4 |
| 20260503194503 | 55 | 245 | 9.0 | 20.0 | 0.00 | 0.00 | 0.00 | 43 | 1011.4 |
| 20260503194002 | 55 | 248 | 12.0 | 20.0 | 0.00 | 0.00 | 0.00 | 42 | 1011.4 |
| 20260503193500 | 55 | 232 | 7.0 | 17.0 | 0.00 | 0.00 | 0.00 | 44 | 1011.5 |
| 20260503193112 | 55 | 277 | 8.0 | 20.0 | 0.00 | 0.00 | 0.00 | 44 | 1011.6 |
| 20260503192600 | 55 | 244 | 11.0 | 20.0 | 0.00 | 0.00 | 0.00 | 46 | 1011.7 |
| 20260503192059 | 55 | 279 | 9.0 | 20.0 | 0.00 | 0.00 | 0.00 | 47 | 1011.7 |
| 20260503191608 | 54 | 198 | 12.0 | 21.0 | 0.00 | 0.00 | 0.00 | 46 | 1011.7 |
| 20260503191058 | 54 | 234 | 12.0 | 19.0 | 0.00 | 0.00 | 0.00 | 47 | 1011.9 |
| 20260503190557 | 54 | 293 | 7.0 | 18.0 | 0.00 | 0.00 | 0.00 | 44 | 1011.8 |
| 20260503190059 | 54 | 225 | 8.0 | 18.0 | 0.00 | 0.00 | 0.00 | 47 | 1012.0 |
| 20260503185100 | 54 | 294 | 10.0 | 17.0 | 0.00 | 0.00 | 0.00 | 45 | 1012.2 |
| 20260503184608 | 54 | 221 | 10.0 | 17.0 | 0.00 | 0.00 | 0.00 | 47 | 1012.2 |
| 20260503184055 | 54 | 269 | 6.0 | 15.0 | 0.00 | 0.00 | 0.00 | 47 | 1012.3 |
| 20260503183555 | 54 | 248 | 7.0 | 19.0 | 0.00 | 0.00 | 0.00 | 47 | 1012.3 |
| 20260503183108 | 54 | 261 | 11.0 | 20.0 | 0.00 | 0.00 | 0.00 | 46 | 1012.3 |
| 20260503182556 | 54 | 198 | 10.0 | 20.0 | 0.00 | 0.00 | 0.00 | 49 | 1012.5 |
| 20260503182053 | 52 | 245 | 13.0 | 20.0 | 0.00 | 0.00 | 0.00 | 47 | 1012.5 |
| 20260503181606 | 52 | 249 | 10.0 | 18.0 | 0.00 | 0.00 | 0.00 | 47 | 1012.6 |
| 20260503181051 | 52 | 236 | 7.0 | 20.0 | 0.00 | 0.00 | 0.00 | 50 | 1012.7 |
| 20260503180551 | 52 | 255 | 13.0 | 20.0 | 0.00 | 0.00 | 0.00 | 49 | 1012.7 |
| 20260503180050 | 52 | 265 | 10.0 | 27.0 | 0.00 | 0.00 | 0.00 | 48 | 1012.8 |
| 20260503175051 | 52 | 206 | 10.0 | 19.0 | 0.00 | 0.00 | 0.00 | 48 | 1012.9 |
| 20260503174548 | 52 | 237 | 10.0 | 18.0 | 0.00 | 0.00 | 0.00 | 50 | 1013.0 |
| 20260503174048 | 52 | 225 | 11.0 | 23.0 | 0.00 | 0.00 | 0.00 | 51 | 1013.0 |
| 20260503173547 | 52 | 199 | 13.0 | 22.0 | 0.00 | 0.00 | 0.00 | 49 | 1013.0 |
| 20260503173056 | 52 | 224 | 10.0 | 17.0 | 0.00 | 0.00 | 0.00 | 50 | 1013.1 |
| 20260503172546 | 51 | 231 | 6.0 | 15.0 | 0.00 | 0.00 | 0.00 | 52 | 1013.2 |
| 20260503172044 | 51 | 239 | 8.0 | 17.0 | 0.00 | 0.00 | 0.00 | 50 | 1013.3 |
| 20260503171544 | 51 | 243 | 11.0 | 17.0 | 0.00 | 0.00 | 0.00 | 50 | 1013.3 |
| 20260503171044 | 51 | 279 | 9.0 | 17.0 | 0.00 | 0.00 | 0.00 | 49 | 1013.4 |
| 20260503170543 | 51 | 286 | 11.0 | 17.0 | 0.00 | 0.00 | 0.00 | 50 | 1013.5 |
| 20260503150529 | 47 | 202 | 8.0 | 16.0 | 0.00 | 0.00 | 0.00 | 51 | 1014.4 |
| 20260503131013 | 40 | 275 | 4.0 | 9.0 | 0.00 | 0.00 | 0.00 | 78 | 1015.2 |
| 20260503130508 | 39 | 245 | 5.0 | 11.0 | 0.00 | 0.00 | 0.00 | 77 | 1015.1 |
| 20260503110548 | 33 | 200 | 6.0 | 9.0 | 0.00 | 0.00 | 0.00 | 87 | 1014.5 |
| 20260503081609 | 32 | 360 | 4.0 | 7.0 | 0.00 | 0.00 | 0.00 | 85 | 1014.3 |
| 20260503081041 | 32 | 209 | 3.0 | 7.0 | 0.00 | 0.00 | 0.00 | 85 | 1014.3 |
| 20260503080540 | 32 | 211 | 4.0 | 7.0 | 0.00 | 0.00 | 0.00 | 84 | 1014.4 |
| 20260503072537 | 33 | 243 | 3.0 | 6.0 | 0.00 | 0.00 | 0.00 | 83 | 1014.3 |
| 20260503072037 | 33 | 223 | 2.0 | 4.0 | 0.00 | 0.00 | 0.00 | 83 | 1014.2 |
| 20260503071537 | 33 | 234 | 1.0 | 4.0 | 0.00 | 0.00 | 0.00 | 83 | 1014.2 |
| 20260503071036 | 33 | 234 | 2.0 | 5.0 | 0.00 | 0.00 | 0.00 | 83 | 1014.2 |
| 20260503070536 | 33 | 240 | 3.0 | 5.0 | 0.00 | 0.00 | 0.00 | 84 | 1014.2 |
| 20260503055032 | 33 | 259 | 2.0 | 5.0 | 0.00 | 0.00 | 0.00 | 84 | 1014.6 |
| 20260503054538 | 33 | 263 | 3.0 | 5.0 | 0.00 | 0.00 | 0.00 | 84 | 1014.7 |
| 20260503054031 | 33 | 254 | 2.0 | 5.0 | 0.00 | 0.00 | 0.00 | 85 | 1014.7 |
| 20260503053531 | 33 | 240 | 2.0 | 6.0 | 0.00 | 0.00 | 0.00 | 85 | 1014.7 |
| 20260503053033 | 33 | 259 | 3.0 | 6.0 | 0.00 | 0.00 | 0.00 | 85 | 1014.7 |
| 20260503052532 | 33 | 236 | 3.0 | 5.0 | 0.00 | 0.00 | 0.00 | 85 | 1014.7 |
| 20260503052031 | 33 | 240 | 2.0 | 5.0 | 0.00 | 0.00 | 0.00 | 85 | 1014.8 |
| 20260503051531 | 33 | 242 | 2.0 | 5.0 | 0.00 | 0.00 | 0.00 | 85 | 1014.8 |
| 20260503051030 | 33 | 234 | 2.0 | 4.0 | 0.00 | 0.00 | 0.00 | 84 | 1014.8 |
| 20260503050530 | 33 | 234 | 2.0 | 5.0 | 0.00 | 0.00 | 0.00 | 84 | 1014.8 |
| 20260503050036 | 33 | 227 | 2.0 | 5.0 | 0.00 | 0.00 | 0.00 | 84 | 1014.8 |
| 20260503045030 | 33 | 248 | 2.0 | 5.0 | 0.00 | 0.00 | 0.00 | 84 | 1014.9 |
| 20260503044530 | 33 | 229 | 3.0 | 5.0 | 0.00 | 0.00 | 0.00 | 84 | 1014.9 |
| 20260503044029 | 33 | 246 | 2.0 | 5.0 | 0.00 | 0.00 | 0.00 | 84 | 1014.9 |
| 20260503043529 | 33 | 225 | 3.0 | 5.0 | 0.00 | 0.00 | 0.00 | 84 | 1014.9 |
| 20260503043029 | 33 | 266 | 2.0 | 6.0 | 0.00 | 0.00 | 0.00 | 83 | 1015.0 |
| 20260503042529 | 33 | 240 | 3.0 | 7.0 | 0.00 | 0.00 | 0.00 | 84 | 1015.0 |
| 20260503042029 | 33 | 228 | 2.0 | 7.0 | 0.00 | 0.00 | 0.00 | 83 | 1014.9 |
| 20260503041529 | 33 | 240 | 2.0 | 5.0 | 0.00 | 0.00 | 0.00 | 83 | 1015.0 |
| 20260503041028 | 33 | 250 | 2.0 | 5.0 | 0.00 | 0.00 | 0.00 | 83 | 1014.9 |
| 20260503040528 | 33 | 240 | 2.0 | 5.0 | 0.00 | 0.00 | 0.00 | 83 | 1015.0 |
| 20260503040034 | 33 | 240 | 2.0 | 5.0 | 0.00 | 0.00 | 0.00 | 83 | 1015.0 |
| 20260503035029 | 34 | 238 | 2.0 | 4.0 | 0.00 | 0.00 | 0.00 | 82 | 1015.0 |
| 20260503034536 | 34 | 239 | 2.0 | 4.0 | 0.00 | 0.00 | 0.00 | 82 | 1015.0 |
| 20260503034029 | 34 | 242 | 1.0 | 5.0 | 0.00 | 0.00 | 0.00 | 82 | 1015.0 |
| 20260503033528 | 34 | 242 | 2.0 | 6.0 | 0.00 | 0.00 | 0.00 | 81 | 1015.0 |
| 20260503033030 | 34 | 239 | 3.0 | 6.0 | 0.00 | 0.00 | 0.00 | 82 | 1015.0 |
| 20260503032528 | 34 | 223 | 3.0 | 6.0 | 0.00 | 0.00 | 0.00 | 81 | 1015.0 |
| 20260503032028 | 34 | 244 | 1.0 | 3.0 | 0.00 | 0.00 | 0.00 | 81 | 1015.1 |
| 20260503031528 | 34 | 236 | 1.0 | 5.0 | 0.00 | 0.00 | 0.00 | 81 | 1015.0 |
| 20260503031031 | 34 | 229 | 2.0 | 6.0 | 0.00 | 0.00 | 0.00 | 81 | 1015.1 |
| 20260503030527 | 34 | 225 | 2.0 | 6.0 | 0.00 | 0.00 | 0.00 | 81 | 1015.1 |
| 20260503030028 | 34 | 254 | 1.0 | 4.0 | 0.00 | 0.00 | 0.00 | 81 | 1015.2 |
| 20260503025027 | 34 | 232 | 1.0 | 5.0 | 0.00 | 0.00 | 0.00 | 80 | 1015.3 |
| 20260503024527 | 35 | 224 | 1.0 | 4.0 | 0.00 | 0.00 | 0.00 | 80 | 1015.2 |
| 20260503024028 | 35 | 224 | 1.0 | 4.0 | 0.00 | 0.00 | 0.00 | 80 | 1015.3 |
| 20260503023528 | 35 | 223 | 1.0 | 4.0 | 0.00 | 0.00 | 0.00 | 79 | 1015.3 |
| 20260503023027 | 35 | 223 | 1.0 | 4.0 | 0.00 | 0.00 | 0.00 | 79 | 1015.4 |
| 20260503022527 | 35 | 224 | 2.0 | 4.0 | 0.00 | 0.00 | 0.00 | 78 | 1015.4 |
| 20260503022029 | 35 | 246 | 1.0 | 4.0 | 0.00 | 0.00 | 0.00 | 78 | 1015.4 |
| 20260503021527 | 35 | 247 | 0.0 | 3.0 | 0.00 | 0.00 | 0.00 | 78 | 1015.4 |
| 20260503021027 | 36 | 247 | 0.0 | 2.0 | 0.00 | 0.00 | 0.00 | 78 | 1015.4 |
| 20260503020527 | 36 | 247 | 0.0 | 4.0 | 0.00 | 0.00 | 0.00 | 77 | 1015.4 |
| 20260503020026 | 36 | 247 | 1.0 | 4.0 | 0.00 | 0.00 | 0.00 | 77 | 1015.4 |
| 20260503015027 | 36 | 293 | 0.0 | 2.0 | 0.00 | 0.00 | 0.00 | 76 | 1015.3 |
| 20260503014537 | 36 | 293 | 0.0 | 4.0 | 0.00 | 0.00 | 0.00 | 75 | 1015.4 |
| 20260503014026 | 36 | 293 | 2.0 | 4.0 | 0.00 | 0.00 | 0.00 | 75 | 1015.3 |
| 20260503013526 | 36 | 296 | 1.0 | 4.0 | 0.00 | 0.00 | 0.00 | 76 | 1015.3 |
| 20260503013028 | 36 | 296 | 0.0 | 2.0 | 0.00 | 0.00 | 0.00 | 76 | 1015.3 |
| 20260503012525 | 36 | 296 | 0.0 | 3.0 | 0.00 | 0.00 | 0.00 | 76 | 1015.3 |
| 20260503012024 | 36 | 296 | 0.0 | 4.0 | 0.00 | 0.00 | 0.00 | 76 | 1015.4 |
| 20260503011524 | 36 | 296 | 2.0 | 4.0 | 0.00 | 0.00 | 0.00 | 75 | 1015.3 |
| 20260503011024 | 36 | 296 | 1.0 | 4.0 | 0.00 | 0.00 | 0.00 | 75 | 1015.3 |
| 20260503010524 | 36 | 295 | 2.0 | 4.0 | 0.00 | 0.00 | 0.00 | 74 | 1015.3 |
| 20260503010024 | 36 | 288 | 2.0 | 6.0 | 0.00 | 0.00 | 0.00 | 74 | 1015.2 |
| 20260503005033 | 36 | 296 | 1.0 | 5.0 | 0.00 | 0.00 | 0.00 | 74 | 1015.2 |
| 20260503004529 | 37 | 304 | 2.0 | 5.0 | 0.00 | 0.00 | 0.00 | 74 | 1015.2 |
| 20260503004029 | 37 | 294 | 2.0 | 5.0 | 0.00 | 0.00 | 0.00 | 74 | 1015.1 |
| 20260503003528 | 37 | 302 | 3.0 | 6.0 | 0.00 | 0.00 | 0.00 | 74 | 1015.1 |
| 20260503003028 | 37 | 277 | 2.0 | 6.0 | 0.00 | 0.00 | 0.00 | 74 | 1015.0 |
| 20260503002528 | 37 | 302 | 1.0 | 3.0 | 0.00 | 0.00 | 0.00 | 75 | 1015.1 |
| 20260503002031 | 37 | 302 | 1.0 | 3.0 | 0.00 | 0.00 | 0.00 | 74 | 1015.1 |
| 20260503001528 | 37 | 303 | 1.0 | 4.0 | 0.00 | 0.00 | 0.00 | 73 | 1015.1 |
| 20260503001027 | 37 | 303 | 2.0 | 6.0 | 0.00 | 0.00 | 0.00 | 73 | 1015.1 |
| 20260503000531 | 37 | 294 | 2.0 | 6.0 | 0.00 | 0.00 | 0.00 | 72 | 1015.1 |
| 20260503000027 | 37 | 309 | 3.0 | 7.0 | 0.00 | 0.00 | 0.00 | 71 | 1015.1 |
| 20260502235026 | 38 | 310 | 4.0 | 9.0 | 0.00 | 0.00 | 0.00 | 70 | 1015.0 |
| 20260502234523 | 38 | 294 | 4.0 | 7.0 | 0.00 | 0.00 | 0.00 | 70 | 1015.0 |
| 20260502234023 | 38 | 299 | 2.0 | 8.0 | 0.00 | 0.00 | 0.00 | 71 | 1014.9 |
| 20260502233523 | 38 | 350 | 3.0 | 10.0 | 0.00 | 0.00 | 0.00 | 69 | 1015.0 |
| 20260502233023 | 38 | 282 | 3.0 | 10.0 | 0.00 | 0.00 | 0.00 | 69 | 1015.1 |
| 20260502232523 | 38 | 296 | 5.0 | 10.0 | 0.00 | 0.00 | 0.00 | 68 | 1015.0 |
| 20260502232023 | 38 | 293 | 6.0 | 10.0 | 0.00 | 0.00 | 0.00 | 69 | 1015.0 |
| 20260502231523 | 38 | 310 | 4.0 | 8.0 | 0.00 | 0.00 | 0.00 | 70 | 1015.0 |
| 20260502231023 | 38 | 314 | 3.0 | 9.0 | 0.00 | 0.00 | 0.00 | 69 | 1014.9 |
| 20260502230524 | 38 | 284 | 6.0 | 9.0 | 0.00 | 0.00 | 0.00 | 68 | 1014.9 |
| 20260502230022 | 38 | 323 | 4.0 | 8.0 | 0.00 | 0.00 | 0.00 | 69 | 1014.9 |
| 20260502225023 | 39 | 302 | 3.0 | 8.0 | 0.00 | 0.00 | 0.00 | 67 | 1014.9 |
| 20260502224523 | 39 | 302 | 3.0 | 12.0 | 0.00 | 0.00 | 0.00 | 66 | 1014.9 |
| 20260502224025 | 39 | 284 | 7.0 | 11.0 | 0.00 | 0.00 | 0.00 | 64 | 1014.9 |
| 20260502223523 | 39 | 287 | 5.0 | 11.0 | 0.00 | 0.00 | 0.00 | 65 | 1014.9 |
| 20260502223024 | 39 | 293 | 7.0 | 11.0 | 0.00 | 0.00 | 0.00 | 63 | 1014.9 |
| 20260502222523 | 39 | 348 | 4.0 | 11.0 | 0.00 | 0.00 | 0.00 | 64 | 1014.8 |
| 20260502222022 | 39 | 324 | 5.0 | 11.0 | 0.00 | 0.00 | 0.00 | 64 | 1014.8 |
| 20260502221522 | 39 | 308 | 8.0 | 13.0 | 0.00 | 0.00 | 0.00 | 62 | 1014.8 |
| 20260502221022 | 39 | 302 | 7.0 | 13.0 | 0.00 | 0.00 | 0.00 | 62 | 1014.9 |
| 20260502220522 | 40 | 291 | 8.0 | 13.0 | 0.00 | 0.00 | 0.00 | 62 | 1014.8 |
| 20260502220032 | 40 | 297 | 4.0 | 12.0 | 0.00 | 0.00 | 0.00 | 65 | 1014.9 |
| 20260502215022 | 40 | 290 | 5.0 | 12.0 | 0.00 | 0.00 | 0.00 | 63 | 1014.8 |
| 20260502214522 | 40 | 281 | 6.0 | 12.0 | 0.00 | 0.00 | 0.00 | 63 | 1014.7 |
| 20260502214022 | 40 | 327 | 5.0 | 14.0 | 0.00 | 0.00 | 0.00 | 61 | 1014.7 |